Time,TemperatureF,DewpointF,PressureIn,WindDirection,WindDirectionDegrees,WindSpeedMPH,WindSpeedGustMPH,Humidity,HourlyPrecipIn,Conditions,Clouds,dailyrainin,SoftwareType,DateUTC
2014-09-16 00:02:00,50.7,46.0,30.22,NW,316,7.0,12.0,84,0.00,,,0.00,meteohub,2014-09-16 05:02:00,
2014-09-16 00:07:00,50.5,45.9,30.22,NW,318,5.0,12.0,84,0.00,,,0.00,meteohub,2014-09-16 05:07:00,
2014-09-16 00:12:00,50.5,45.9,30.22,WNW,303,9.0,13.0,84,0.00,,,0.00,meteohub,2014-09-16 05:12:00,
2014-09-16 00:17:00,50.5,45.9,30.22,NW,310,6.0,13.0,84,0.00,,,0.00,meteohub,2014-09-16 05:17:00,
2014-09-16 00:22:00,50.5,45.9,30.22,NNW,335,11.0,13.0,84,0.00,,,0.00,meteohub,2014-09-16 05:22:00,
2014-09-16 00:27:00,50.5,45.5,30.22,NW,314,4.0,13.0,83,0.00,,,0.00,meteohub,2014-09-16 05:27:00,
2014-09-16 00:32:00,50.5,45.5,30.22,WNW,300,9.0,19.0,83,0.00,,,0.00,meteohub,2014-09-16 05:32:00,
2014-09-16 00:37:00,50.4,45.3,30.22,NW,308,6.0,19.0,83,0.00,,,0.00,meteohub,2014-09-16 05:37:00,
2014-09-16 00:42:00,50.4,45.3,30.22,NW,318,4.0,19.0,83,0.00,,,0.00,meteohub,2014-09-16 05:42:00,
2014-09-16 00:47:00,50.2,45.5,30.22,NW,311,6.0,11.0,84,0.00,,,0.00,meteohub,2014-09-16 05:47:00,
2014-09-16 00:52:00,50.2,45.5,30.22,NW,307,8.0,10.0,84,0.00,,,0.00,meteohub,2014-09-16 05:52:00,
2014-09-16 00:57:00,50.2,45.1,30.23,NW,308,7.0,10.0,83,0.00,,,0.00,meteohub,2014-09-16 05:57:00,
2014-09-16 01:02:00,50.0,45.0,30.23,WNW,287,3.0,10.0,83,0.00,,,0.00,meteohub,2014-09-16 06:02:00,
2014-09-16 01:08:00,49.8,44.8,30.23,NW,323,3.0,10.0,83,0.00,,,0.00,meteohub,2014-09-16 06:08:00,
2014-09-16 01:13:00,49.6,44.8,30.23,NW,315,5.0,10.0,83,0.00,,,0.00,meteohub,2014-09-16 06:13:00,
2014-09-16 01:18:00,49.6,44.8,30.23,NW,324,6.0,10.0,83,0.00,,,0.00,meteohub,2014-09-16 06:18:00,
2014-09-16 01:23:00,49.6,44.8,30.23,NNW,331,4.0,10.0,83,0.00,,,0.00,meteohub,2014-09-16 06:23:00,
2014-09-16 01:25:00,49.6,44.8,30.23,NW,314,5.0,11.0,83,0.00,,,0.00,meteohub,2014-09-16 06:25:00,
2014-09-16 01:30:00,49.5,44.6,30.23,NW,318,5.0,11.0,83,0.00,,,0.00,meteohub,2014-09-16 06:30:00,
2014-09-16 01:35:00,49.3,44.4,30.23,NW,318,3.0,9.0,83,0.00,,,0.00,meteohub,2014-09-16 06:35:00,
2014-09-16 01:40:00,49.3,44.4,30.23,NW,312,6.0,9.0,83,0.00,,,0.00,meteohub,2014-09-16 06:40:00,
2014-09-16 01:45:00,49.3,44.4,30.23,NW,310,3.0,9.0,83,0.00,,,0.00,meteohub,2014-09-16 06:45:00,
2014-09-16 01:50:00,49.5,44.2,30.23,NW,325,3.0,10.0,82,0.00,,,0.00,meteohub,2014-09-16 06:50:00,
2014-09-16 01:56:00,49.5,44.2,30.23,NW,316,2.0,10.0,82,0.00,,,0.00,meteohub,2014-09-16 06:56:00,
2014-09-16 02:01:00,49.5,44.2,30.23,NW,316,5.0,10.0,82,0.00,,,0.00,meteohub,2014-09-16 07:01:00,
2014-09-16 02:06:00,49.3,44.1,30.23,NW,314,5.0,9.0,82,0.00,,,0.00,meteohub,2014-09-16 07:06:00,
2014-09-16 02:08:00,49.1,43.9,30.23,NW,312,6.0,9.0,82,0.00,,,0.00,meteohub,2014-09-16 07:08:00,
2014-09-16 02:13:00,48.9,43.7,30.24,NW,318,5.0,9.0,82,0.00,,,0.00,meteohub,2014-09-16 07:13:00,
2014-09-16 02:19:00,48.7,43.9,30.24,WNW,302,7.0,10.0,83,0.00,,,0.00,meteohub,2014-09-16 07:19:00,
2014-09-16 02:24:00,48.7,43.9,30.24,NW,309,5.0,10.0,83,0.00,,,0.00,meteohub,2014-09-16 07:24:00,
2014-09-16 02:29:00,48.7,43.5,30.24,North,350,4.0,13.0,82,0.00,,,0.00,meteohub,2014-09-16 07:29:00,
2014-09-16 02:34:00,48.7,43.5,30.24,NW,312,5.0,13.0,82,0.00,,,0.00,meteohub,2014-09-16 07:34:00,
2014-09-16 02:39:00,48.7,43.5,30.24,NW,314,4.0,13.0,82,0.00,,,0.00,meteohub,2014-09-16 07:39:00,
2014-09-16 02:44:00,48.7,43.5,30.24,NW,318,3.0,10.0,82,0.00,,,0.00,meteohub,2014-09-16 07:44:00,
2014-09-16 02:49:00,48.7,43.5,30.24,NW,306,3.0,10.0,82,0.00,,,0.00,meteohub,2014-09-16 07:49:00,
2014-09-16 02:54:00,48.7,43.9,30.25,NW,325,4.0,10.0,83,0.00,,,0.00,meteohub,2014-09-16 07:54:00,
2014-09-16 02:59:00,48.6,43.7,30.25,NW,318,6.0,10.0,83,0.00,,,0.00,meteohub,2014-09-16 07:59:00,
2014-09-16 03:04:00,48.4,43.5,30.25,NW,316,3.0,9.0,83,0.00,,,0.00,meteohub,2014-09-16 08:04:00,
2014-09-16 03:10:00,48.2,43.5,30.25,NW,314,5.0,9.0,84,0.00,,,0.00,meteohub,2014-09-16 08:10:00,
2014-09-16 03:15:00,48.2,43.3,30.24,NW,315,3.0,9.0,83,0.00,,,0.00,meteohub,2014-09-16 08:15:00,
2014-09-16 03:18:00,48.2,43.3,30.24,NW,308,4.0,9.0,83,0.00,,,0.00,meteohub,2014-09-16 08:18:00,
2014-09-16 03:23:00,48.0,43.2,30.24,NW,310,6.0,9.0,83,0.00,,,0.00,meteohub,2014-09-16 08:23:00,
2014-09-16 03:28:00,47.8,43.2,30.24,NW,316,5.0,9.0,84,0.00,,,0.00,meteohub,2014-09-16 08:28:00,
2014-09-16 03:31:00,47.8,43.2,30.24,NW,312,5.0,9.0,84,0.00,,,0.00,meteohub,2014-09-16 08:31:00,
2014-09-16 03:37:00,47.7,43.3,30.24,NW,310,5.0,9.0,85,0.00,,,0.00,meteohub,2014-09-16 08:37:00,
2014-09-16 03:42:00,47.5,43.5,30.24,NW,312,3.0,9.0,86,0.00,,,0.00,meteohub,2014-09-16 08:42:00,
2014-09-16 03:47:00,47.5,43.5,30.24,NNW,330,2.0,8.0,86,0.00,,,0.00,meteohub,2014-09-16 08:47:00,
2014-09-16 03:52:00,47.5,43.5,30.24,NW,326,3.0,7.0,86,0.00,,,0.00,meteohub,2014-09-16 08:52:00,
2014-09-16 03:57:00,47.5,43.5,30.24,NW,314,4.0,6.0,86,0.00,,,0.00,meteohub,2014-09-16 08:57:00,
2014-09-16 04:02:00,47.3,43.3,30.24,NW,312,5.0,8.0,86,0.00,,,0.00,meteohub,2014-09-16 09:02:00,
2014-09-16 04:07:00,47.1,43.5,30.24,WNW,302,4.0,9.0,87,0.00,,,0.00,meteohub,2014-09-16 09:07:00,
2014-09-16 04:12:00,46.9,43.3,30.24,NW,308,5.0,9.0,87,0.00,,,0.00,meteohub,2014-09-16 09:12:00,
2014-09-16 04:17:00,46.9,43.3,30.24,WNW,303,3.0,9.0,87,0.00,,,0.00,meteohub,2014-09-16 09:17:00,
2014-09-16 04:22:00,46.8,43.3,30.24,NW,318,4.0,8.0,88,0.00,,,0.00,meteohub,2014-09-16 09:22:00,
2014-09-16 04:27:00,46.8,43.3,30.24,NW,308,5.0,7.0,88,0.00,,,0.00,meteohub,2014-09-16 09:27:00,
2014-09-16 04:32:00,46.8,43.3,30.24,NW,310,4.0,7.0,88,0.00,,,0.00,meteohub,2014-09-16 09:32:00,
2014-09-16 04:37:00,46.8,43.2,30.24,NW,308,3.0,6.0,87,0.00,,,0.00,meteohub,2014-09-16 09:37:00,
2014-09-16 04:40:00,46.8,43.2,30.24,NW,307,3.0,6.0,87,0.00,,,0.00,meteohub,2014-09-16 09:40:00,
2014-09-16 04:45:00,46.8,43.2,30.24,NW,308,3.0,6.0,87,0.00,,,0.00,meteohub,2014-09-16 09:45:00,
2014-09-16 04:50:00,46.6,43.0,30.24,NW,311,0.0,6.0,87,0.00,,,0.00,meteohub,2014-09-16 09:50:00,
2014-09-16 04:55:00,46.6,43.0,30.23,NW,321,0.0,5.0,87,0.00,,,0.00,meteohub,2014-09-16 09:55:00,
2014-09-16 05:00:00,46.6,42.6,30.24,NW,320,0.0,4.0,86,0.00,,,0.00,meteohub,2014-09-16 10:00:00,
2014-09-16 05:05:00,46.6,42.6,30.23,NW,321,0.0,4.0,86,0.00,,,0.00,meteohub,2014-09-16 10:05:00,
2014-09-16 05:11:00,46.6,42.6,30.24,NW,321,0.0,4.0,86,0.00,,,0.00,meteohub,2014-09-16 10:11:00,
2014-09-16 05:16:00,46.4,42.4,30.24,NW,321,0.0,4.0,86,0.00,,,0.00,meteohub,2014-09-16 10:16:00,
2014-09-16 05:17:00,46.4,42.1,30.23,NW,321,0.0,4.0,85,0.00,,,0.00,meteohub,2014-09-16 10:17:00,
2014-09-16 05:22:00,46.2,41.9,30.24,NW,321,0.0,1.0,85,0.00,,,0.00,meteohub,2014-09-16 10:22:00,
2014-09-16 05:27:00,46.2,41.9,30.24,NW,321,0.0,0.0,85,0.00,,,0.00,meteohub,2014-09-16 10:27:00,
2014-09-16 05:33:00,46.2,41.9,30.24,NW,321,0.0,0.0,85,0.00,,,0.00,meteohub,2014-09-16 10:33:00,
2014-09-16 05:38:00,46.2,41.9,30.24,NW,320,0.0,3.0,85,0.00,,,0.00,meteohub,2014-09-16 10:38:00,
2014-09-16 05:43:00,46.2,41.9,30.24,NW,320,0.0,3.0,85,0.00,,,0.00,meteohub,2014-09-16 10:43:00,
2014-09-16 05:48:00,46.2,41.9,30.24,NW,320,0.0,3.0,85,0.00,,,0.00,meteohub,2014-09-16 10:48:00,
2014-09-16 05:53:00,46.2,41.7,30.24,NW,320,0.0,1.0,84,0.00,,,0.00,meteohub,2014-09-16 10:53:00,
2014-09-16 05:58:00,46.0,41.5,30.24,NW,320,0.0,1.0,84,0.00,,,0.00,meteohub,2014-09-16 10:58:00,
2014-09-16 06:03:00,46.0,41.5,30.24,NW,320,0.0,1.0,84,0.00,,,0.00,meteohub,2014-09-16 11:03:00,
2014-09-16 06:08:00,46.0,41.5,30.24,NW,320,0.0,0.0,84,0.00,,,0.00,meteohub,2014-09-16 11:08:00,
2014-09-16 06:13:00,45.9,41.4,30.24,NW,320,0.0,0.0,84,0.00,,,0.00,meteohub,2014-09-16 11:13:00,
2014-09-16 06:18:00,45.9,41.4,30.24,NW,320,0.0,0.0,84,0.00,,,0.00,meteohub,2014-09-16 11:18:00,
2014-09-16 06:24:00,45.7,41.2,30.24,NW,320,0.0,0.0,84,0.00,,,0.00,meteohub,2014-09-16 11:24:00,
2014-09-16 06:29:00,45.7,41.2,30.24,NW,320,0.0,0.0,84,0.00,,,0.00,meteohub,2014-09-16 11:29:00,
2014-09-16 06:34:00,45.7,41.2,30.24,NW,320,0.0,0.0,84,0.00,,,0.00,meteohub,2014-09-16 11:34:00,
2014-09-16 06:39:00,45.7,41.2,30.24,NW,320,0.0,0.0,84,0.00,,,0.00,meteohub,2014-09-16 11:39:00,
2014-09-16 06:44:00,45.5,41.2,30.24,NW,320,0.0,0.0,85,0.00,,,0.00,meteohub,2014-09-16 11:44:00,
2014-09-16 06:49:00,45.7,41.4,30.24,NW,320,0.0,0.0,85,0.00,,,0.00,meteohub,2014-09-16 11:49:00,
2014-09-16 06:54:00,45.9,41.4,30.24,NW,320,0.0,0.0,84,0.00,,,0.00,meteohub,2014-09-16 11:54:00,
2014-09-16 06:59:00,46.0,41.5,30.24,NW,320,0.0,0.0,84,0.00,,,0.00,meteohub,2014-09-16 11:59:00,
2014-09-16 07:04:00,46.0,41.5,30.24,NW,320,0.0,0.0,84,0.00,,,0.00,meteohub,2014-09-16 12:04:00,
2014-09-16 07:09:00,46.0,41.2,30.24,NW,320,0.0,0.0,83,0.00,,,0.00,meteohub,2014-09-16 12:09:00,
2014-09-16 07:11:00,46.0,41.2,30.25,NW,320,0.0,0.0,83,0.00,,,0.00,meteohub,2014-09-16 12:11:00,
2014-09-16 07:16:00,46.0,41.2,30.25,NW,320,0.0,0.0,83,0.00,,,0.00,meteohub,2014-09-16 12:16:00,
2014-09-16 07:21:00,46.0,41.5,30.25,NW,320,0.0,2.0,84,0.00,,,0.00,meteohub,2014-09-16 12:21:00,
2014-09-16 07:26:00,46.0,41.5,30.25,NW,320,0.0,2.0,84,0.00,,,0.00,meteohub,2014-09-16 12:26:00,
2014-09-16 07:31:00,46.4,41.9,30.25,NW,320,0.0,0.0,84,0.00,,,0.00,meteohub,2014-09-16 12:31:00,
2014-09-16 07:37:00,46.8,41.9,30.24,NW,320,0.0,0.0,83,0.00,,,0.00,meteohub,2014-09-16 12:37:00,